Wind_Speed
62 55 47 57 61 60 59 60 63 69 80 90 90 91 93 95 94 84 71 79 76 80 72 70 65 61 51 48 54 54 49 49 48 45 46 43 38 37 32 31 33 33 34 25
70 58 68 70 70 69 66 61 54 63 73 88 94 94 93 99 97 89 76 74 82 73 68 67 56 53 53 51 54 56 49 49 52 49 50 44 41 38 37 34 33 35 34 32
78 65 75 78 78 75 73 71 70 71 79 90 94 99 94 93 100 93 83 73 81 73 65 70 69 60 51 47 50 53 58 52 51 47 49 44 42 39 36 34 34 38 37 35
82 76 76 76 77 81 79 78 81 83 84 88 96 96 89 88 93 97 86 75 78 78 70 71 65 66 50 42 41 46 53 55 55 53 48 43 42 38 35 34 34 35 33 34
72 78 81 75 74 83 81 84 82 84 86 89 91 88 83 83 88 95 88 79 76 81 79 75 64 53 65 44 38 53 49 48 51 51 43 44 41 39 35 33 33 34 34 31
66 70 75 71 76 82 81 78 85 82 82 83 81 84 79 75 76 87 92 86 80 83 81 84 73 55 49 58 45 76 60 49 49 47 46 44 40 37 35 33 32 32 32 31
52 57 65 66 78 78 74 77 78 77 76 73 77 82 70 67 75 83 95 92 82 84 91 80 81 57 47 47 55 66 55 53 47 43 47 48 42 37 34 34 34 34 33 34
44 51 57 64 64 74 72 75 74 69 62 62 83 68 60 67 73 82 93 99 90 87 93 85 86 80 60 62 64 65 72 70 57 49 53 46 44 35 35 38 36 34 33 30
35 39 41 46 56 64 61 59 67 66 62 66 56 54 72 73 77 83 94 104 99 89 90 89 82 79 57 56 62 61 69 69 64 55 57 54 49 44 41 40 38 37 33 33
29 27 30 35 42 47 50 51 46 46 45 47 49 59 68 71 78 87 96 106 103 96 91 90 91 90 71 70 58 52 55 58 65 58 56 55 53 47 47 46 43 40 38 35
18 20 24 32 37 39 41 39 39 39 41 44 54 61 66 72 80 88 96 107 105 101 89 92 97 90 78 72 56 47 48 64 64 61 59 57 52 49 48 45 42 42 45 42
15 16 17 21 26 31 30 31 31 37 41 49 60 60 66 76 82 87 96 107 102 99 91 88 95 101 89 72 66 53 53 55 61 68 61 54 53 51 49 48 43 40 43 46
11 15 19 22 26 30 31 32 36 38 45 53 53 58 69 80 86 90 94 100 104 103 95 85 92 103 96 82 64 59 60 67 57 62 61 56 55 56 49 47 44 45 45 44
14 16 17 19 22 24 29 31 35 38 39 43 52 62 71 81 88 94 96 102 109 107 102 91 93 96 97 96 77 71 64 67 67 63 63 57 56 59 53 48 45 45 46 45
15 21 24 24 25 28 28 29 31 36 36 46 55 62 69 79 88 95 97 98 102 100 95 89 88 85 94 103 89 74 62 57 61 60 58 56 60 59 55 51 49 49 47 46
18 22 26 29 30 29 30 30 29 34 39 50 54 57 59 71 82 89 90 96 96 91 91 86 81 74 86 90 95 89 69 58 54 57 58 62 67 60 58 57 55 50 49 48
18 22 23 26 30 29 31 34 36 41 45 45 48 51 61 72 83 88 91 98 97 92 88 83 80 70 79 79 84 78 76 58 56 59 62 60 63 61 57 56 54 53 54 53
15 18 23 23 28 36 39 43 45 50 53 46 43 51 62 76 85 87 87 93 92 86 86 85 80 79 76 83 74 85 74 72 61 60 63 69 68 63 62 63 64 61 61 59
16 17 26 29 36 43 52 60 62 60 54 52 42 50 63 79 85 84 87 95 91 84 81 90 89 84 78 86 90 84 81 72 64 55 57 54 53 57 61 59 62 64 65 63
12 18 25 38 42 48 54 66 67 58 55 54 47 49 58 80 84 86 91 91 89 87 92 87 89 97 89 80 84 77 80 77 72 65 53 54 56 61 64 65 65 66 64 63
10 12 21 32 45 50 55 61 68 64 58 57 52 58 66 81 85 87 91 92 92 86 90 94 90 88 86 82 79 79 79 77 73 65 59 63 65 67 68 69 69 68 67 66
8 14 20 29 37 48 55 61 69 69 66 63 57 62 69 82 86 90 90 93 93 88 90 85 89 87 82 82 84 78 77 79 81 78 73 72 73 74 73 73 74 73 70 68
7 11 22 29 34 39 53 60 66 67 68 62 61 67 76 85 88 90 92 96 94 93 92 85 81 82 82 80 81 82 85 87 84 84 84 80 75 75 76 73 71 70 70 73
8 9 14 25 35 40 48 54 63 68 68 68 68 69 78 88 91 97 88 93 95 91 92 88 79 77 84 85 80 82 78 80 66 90 86 77 66 70 76 74 71 71 73 74
9 9 13 20 29 37 39 47 52 63 68 68 67 70 77 87 90 89 90 96 93 85 93 94 81 74 76 85 86 83 85 72 65 62 70 77 74 60 56 66 69 70 72 73
6 8 10 14 25 33 45 45 49 59 65 67 63 69 72 86 91 92 94 91 97 86 90 94 94 79 84 81 84 80 81 75 80 69 68 70 72 71 76 69 68 68 71 77
Wind_Direction
276 270 272 264 260 254 245 243 241 238 237 238 231 225 223 225 224 224 222 220 218 222 216 212 205 215 209 221 229 237 238 235 240 243 247 251 256 257 261 258 246 242 248 251
272 271 265 260 258 256 250 243 235 233 236 234 233 228 220 222 224 220 218 218 215 219 216 207 198 206 217 219 229 232 234 235 241 242 247 249 253 256 260 263 250 243 245 250
270 266 261 258 257 253 250 244 238 230 233 231 228 229 224 219 222 218 215 216 212 213 211 199 197 201 208 212 223 233 239 239 239 241 245 245 250 256 258 257 252 248 255 248
273 269 263 256 252 253 247 247 237 232 228 229 230 227 227 219 218 216 212 214 210 213 199 188 189 183 182 218 228 244 237 233 242 242 241 243 251 254 257 255 247 251 248 247
267 263 260 255 251 250 244 246 242 234 231 230 235 234 226 221 214 215 209 210 208 210 206 185 189 188 195 201 226 225 235 232 233 236 236 244 248 253 249 248 244 248 248 250
262 259 256 253 250 248 247 242 244 239 236 236 232 242 226 223 212 215 209 205 208 204 211 197 193 188 189 196 204 201 228 229 229 235 238 239 242 246 247 249 245 242 247 258
261 243 246 242 241 243 242 242 242 240 239 236 228 240 225 221 215 212 207 201 206 204 206 206 197 189 191 196 208 208 223 227 227 236 238 240 239 245 249 245 245 248 254 258
250 243 239 237 239 238 237 237 240 240 235 227 224 232 217 221 212 210 205 199 203 204 208 205 196 200 201 200 216 221 229 234 235 236 236 239 239 246 248 249 246 247 257 256
257 247 239 234 232 237 238 238 235 236 234 230 223 221 212 215 205 204 202 197 198 202 204 208 200 200 194 194 202 215 227 228 232 233 236 241 244 244 250 247 247 250 253 253
254 246 233 227 226 227 228 231 232 231 227 224 208 212 211 206 200 199 198 196 195 201 200 201 199 199 194 198 200 201 225 228 232 231 234 238 244 246 248 249 247 247 252 261
243 225 220 218 216 217 220 220 220 217 213 208 199 204 203 200 196 196 194 194 195 197 200 196 191 192 200 196 194 192 228 231 233 233 236 237 241 244 247 247 245 248 252 251
214 203 212 212 208 205 203 205 201 202 199 196 195 196 194 194 194 194 192 193 194 196 199 198 196 193 197 194 195 199 208 216 232 229 233 235 238 245 244 247 252 242 252 255
182 179 185 187 190 190 189 192 192 193 196 192 188 189 189 192 190 190 194 190 192 192 198 198 198 203 201 200 204 208 220 220 232 226 230 234 241 243 242 248 251 250 251 255
159 161 160 167 170 174 179 182 181 186 187 188 181 184 187 190 188 187 191 190 192 191 196 196 199 203 208 206 206 210 213 228 233 230 236 236 238 241 241 242 240 246 250 254
138 137 138 137 150 162 163 171 176 181 174 179 180 183 186 189 188 188 187 189 194 191 196 198 200 202 206 207 207 209 218 222 224 229 233 231 232 241 243 246 249 253 258 262
137 142 145 149 150 157 163 160 168 164 168 173 180 183 182 187 187 187 188 187 191 192 195 198 203 206 207 210 212 217 215 220 226 229 229 232 233 239 245 247 252 255 258 261
128 133 143 153 156 152 150 149 155 157 163 171 173 179 179 185 186 186 186 186 187 191 193 197 202 207 209 208 209 211 217 216 231 235 235 235 236 238 243 247 252 257 258 261
131 138 139 153 151 146 145 141 142 146 151 152 161 177 180 180 184 185 185 184 186 188 192 198 200 205 206 206 208 217 214 224 225 223 228 239 240 241 246 251 254 257 259 260
130 140 144 143 148 149 148 141 143 145 151 159 153 174 181 184 182 180 181 184 184 185 193 198 200 203 204 207 210 215 223 226 230 232 236 239 241 244 246 248 255 257 258 261
132 150 153 149 152 152 160 152 151 152 155 157 160 167 180 183 180 179 181 182 187 191 195 196 202 203 202 209 213 217 222 224 230 231 231 242 249 252 252 255 256 258 259 259
127 150 161 164 163 164 171 169 156 161 162 166 167 180 181 181 180 179 182 184 189 192 196 199 202 202 205 207 212 218 222 221 222 221 235 245 249 248 250 253 256 257 258 261
116 135 159 172 174 171 174 175 170 175 170 174 177 182 179 180 181 180 185 189 191 194 197 199 205 206 209 211 212 214 220 222 225 228 237 244 247 251 249 251 255 259 261 261
98 149 157 173 182 182 180 184 183 181 176 179 183 185 179 182 181 184 186 193 192 195 198 199 203 206 210 212 216 216 218 220 222 229 237 242 245 249 249 250 251 253 257 259
115 156 166 179 188 191 189 189 189 184 185 184 190 191 183 185 183 184 187 195 196 196 198 199 202 206 212 210 213 216 218 222 221 231 232 231 233 240 251 251 252 256 260 262
125 152 164 169 188 202 201 197 198 194 193 194 196 194 190 188 186 184 188 193 196 196 199 200 202 208 214 217 218 217 219 219 220 222 229 232 236 228 239 246 249 252 254 261
153 155 159 171 175 191 206 208 200 201 202 204 202 201 196 192 191 189 194 191 196 196 203 203 205 206 205 201 211 214 214 216 216 219 225 232 235 235 238 246 249 252 259 255
Height
10469 10478 10486 10472 10469 10473 10479 10488 10502 10514 10510 10507 10530 10546 10564 10568 10580 10604 10623 10638 10654 10670 10685 10701 10714 10724 10735 10745 10752 10756 10762 10768 10773 10780 10781 10784 10786 10790 10794 10798 10800 10803 10805 10807
10446 10465 10448 10447 10449 10452 10458 10468 10486 10487 10484 10485 10498 10517 10537 10549 10566 10589 10611 10623 10641 10653 10677 10690 10703 10712 10727 10737 10745 10749 10755 10761 10764 10772 10773 10778 10778 10783 10788 10793 10795 10795 10799 10802
10415 10440 10423 10422 10423 10428 10435 10443 10454 10460 10454 10456 10472 10487 10512 10533 10545 10573 10597 10612 10629 10646 10666 10680 10691 10705 10718 10729 10737 10742 10747 10753 10756 10763 10770 10769 10771 10775 10781 10785 10790 10788 10790 10795
10382 10397 10391 10393 10398 10396 10408 10414 10420 10428 10436 10440 10447 10466 10497 10517 10535 10556 10584 10602 10621 10635 10654 10666 10682 10696 10710 10716 10739 10743 10739 10744 10747 10756 10762 10762 10764 10768 10773 10776 10782 10783 10783 10786
10367 10357 10355 10359 10370 10363 10379 10381 10395 10408 10417 10425 10438 10451 10485 10493 10520 10542 10572 10593 10609 10625 10640 10659 10669 10684 10699 10712 10723 10741 10734 10735 10741 10748 10754 10754 10757 10762 10764 10771 10775 10777 10778 10779
10328 10326 10325 10337 10335 10336 10346 10364 10365 10384 10400 10417 10439 10424 10466 10486 10518 10532 10557 10577 10594 10614 10624 10645 10659 10672 10686 10699 10712 10728 10725 10727 10735 10740 10746 10746 10751 10755 10758 10764 10768 10772 10774 10774
10290 10295 10294 10301 10299 10311 10326 10338 10345 10359 10381 10408 10415 10405 10458 10474 10495 10510 10533 10562 10579 10599 10613 10631 10653 10665 10676 10687 10703 10712 10712 10718 10727 10734 10738 10740 10745 10749 10754 10757 10761 10765 10768 10768
10265 10266 10270 10278 10286 10289 10303 10315 10326 10337 10361 10379 10365 10400 10451 10452 10467 10485 10510 10539 10559 10578 10597 10619 10639 10652 10661 10675 10684 10694 10702 10710 10719 10726 10730 10735 10738 10743 10747 10750 10755 10758 10760 10761
10244 10246 10257 10263 10268 10273 10288 10302 10307 10319 10338 10349 10385 10402 10405 10419 10439 10462 10488 10514 10538 10562 10583 10607 10625 10637 10652 10663 10676 10681 10693 10701 10709 10715 10721 10728 10731 10736 10739 10743 10747 10750 10752 10754
10228 10234 10242 10248 10256 10264 10274 10282 10298 10311 10328 10344 10368 10375 10384 10402 10425 10444 10468 10496 10528 10551 10566 10589 10609 10625 10642 10655 10667 10678 10685 10691 10697 10705 10711 10717 10722 10729 10731 10734 10738 10742 10745 10747
10221 10225 10231 10237 10245 10256 10266 10279 10290 10302 10314 10329 10343 10352 10371 10394 10416 10435 10457 10483 10517 10539 10561 10581 10602 10618 10633 10647 10661 10668 10672 10679 10688 10695 10703 10708 10714 10718 10721 10725 10728 10734 10737 10739
10215 10221 10227 10236 10244 10252 10263 10273 10283 10292 10302 10314 10324 10343 10362 10381 10406 10429 10451 10478 10511 10537 10552 10572 10593 10609 10625 10637 10646 10656 10660 10659 10678 10684 10692 10699 10705 10708 10712 10716 10720 10724 10729 10732
10214 10217 10224 10231 10239 10247 10257 10267 10276 10287 10295 10306 10323 10338 10357 10372 10395 10420 10449 10478 10497 10521 10546 10566 10583 10599 10616 10628 10641 10651 10658 10663 10667 10675 10683 10690 10695 10698 10703 10707 10712 10715 10719 10722
10215 10220 10227 10233 10242 10250 10257 10266 10274 10285 10299 10317 10323 10335 10349 10368 10390 10412 10437 10459 10477 10504 10528 10552 10568 10585 10603 10616 10631 10643 10650 10653 10656 10664 10672 10680 10686 10688 10692 10698 10703 10706 10709 10712
10219 10224 10228 10235 10241 10249 10258 10269 10279 10289 10304 10317 10323 10335 10348 10367 10388 10411 10427 10459 10487 10506 10532 10552 10563 10576 10592 10608 10621 10632 10640 10645 10648 10653 10661 10668 10674 10679 10684 10688 10692 10696 10699 10702
10224 10227 10232 10237 10244 10252 10261 10273 10284 10295 10307 10315 10325 10340 10358 10375 10395 10416 10438 10460 10490 10515 10533 10551 10567 10580 10593 10606 10616 10625 10632 10636 10640 10646 10650 10656 10662 10669 10673 10678 10682 10686 10688 10691
10231 10235 10240 10243 10248 10257 10264 10275 10286 10299 10309 10321 10331 10344 10357 10372 10392 10414 10434 10457 10482 10503 10527 10551 10566 10576 10583 10598 10607 10617 10622 10625 10628 10634 10638 10645 10653 10659 10662 10668 10672 10675 10677 10680
10239 10243 10248 10252 10259 10265 10272 10280 10293 10306 10313 10323 10333 10344 10356 10368 10391 10412 10439 10463 10484 10507 10522 10539 10552 10564 10575 10588 10595 10606 10613 10615 10617 10622 10630 10637 10642 10648 10651 10656 10659 10662 10664 10666
10246 10250 10253 10257 10264 10269 10275 10282 10292 10304 10313 10323 10335 10345 10358 10374 10391 10415 10438 10457 10478 10494 10502 10518 10532 10546 10557 10567 10579 10592 10600 10606 10613 10619 10626 10627 10630 10634 10637 10642 10646 10648 10650 10652
10253 10255 10258 10262 10268 10277 10279 10283 10290 10303 10314 10323 10336 10349 10359 10376 10395 10413 10431 10453 10467 10479 10487 10494 10513 10526 10541 10550 10568 10581 10590 10598 10606 10609 10612 10613 10617 10620 10623 10625 10629 10633 10636 10639
10259 10261 10263 10269 10270 10278 10281 10284 10292 10303 10312 10321 10329 10341 10355 10374 10395 10413 10430 10441 10450 10463 10474 10489 10506 10523 10534 10546 10558 10568 10579 10589 10595 10599 10600 10603 10604 10609 10611 10611 10612 10617 10622 10624
10262 10265 10271 10272 10276 10282 10286 10290 10295 10300 10312 10321 10330 10341 10359 10375 10392 10409 10422 10435 10443 10455 10470 10487 10500 10515 10528 10537 10545 10555 10565 10571 10579 10587 10588 10592 10594 10597 10599 10599 10599 10601 10604 10607
10264 10268 10273 10277 10279 10285 10290 10292 10298 10305 10314 10323 10332 10341 10353 10368 10386 10404 10409 10418 10435 10448 10465 10479 10494 10508 10513 10522 10534 10542 10550 10558 10566 10571 10575 10579 10585 10586 10585 10588 10589 10590 10590 10592
10269 10271 10274 10280 10281 10287 10290 10295 10300 10309 10315 10321 10329 10341 10353 10364 10373 10382 10410 10418 10431 10446 10459 10474 10489 10496 10497 10509 10515 10526 10534 10544 10550 10553 10560 10569 10568 10571 10574 10576 10577 10578 10577 10576
10269 10271 10275 10281 10285 10285 10290 10297 10301 10307 10311 10317 10328 10339 10353 10360 10376 10391 10387 10401 10428 10436 10450 10465 10476 10484 10490 10497 10503 10509 10521 10526 10534 10530 10540 10550 10555 10564 10548 10555 10560 10562 10564 10562
10268 10269 10272 10276 10283 10288 10291 10295 10302 10307 10310 10316 10326 10336 10347 10356 10365 10370 10382 10403 10408 10428 10438 10449 10458 10463 10462 10464 10479 10493 10500 10507 10512 10518 10525 10535 10534 10539 10541 10543 10545 10550 10548 10546